Location: B�rgermoos
(47.6500°N, 9.0667°E)
Time: 02:17:43
(UTC+00:00)

Tiros 1 - Pass Details

Date: 05 August 2021
Orbit: 630 x 663 km, 48.4° (Epoch: 16 September)

Event Time Altitude Azimuth Distance (km) Brightness Sun altitude
Rises 19:47:09 0° 282° (WNW) 2,982 11.9 -8.7°
Reaches altitude 10° 19:49:30 10° 282° (WNW) 2,065 10.9 -9.0°
Maximum altitude 19:54:17 82° 195° (SSW) 660 7.2 -9.7°
Enters shadow 19:58:38 12° 108° (ESE) 1,905 9.0 -10.2°
Drops below altitude 10° 19:58:59 10° 108° (ESE) 2,039 - -10.3°
Sets 20:01:18 0° 108° (ESE) 2,941 - -10.6°
